SCP
0 0 0 0 0 0 0 0 0 0 0 0 0 0 0 0 0 0 0 0 0 0 0 0 0 0 0 0 0 0 0 0 0 0 0 0 0 0
0 0 0 0 0 0 0 0 0 0 0 0 0 0 0 0 0 0 0 0 0 0 0 0 0 0 0 0 0 0 0 0 0 0 0 0 0 0
0 0 0 0 0 0 0 0 0 0 0 0 0 0 0 0 0 0 0 0 0 0 0 0 0 0 0 0 0 0 0 0 0 0 0 0 0 0
0 0 0 0 0 0 0 0 0 0 0 0 0 0 0 0 0 0 0 0 0 0 0 0 0 0 0 0 0 0 0 0 0 0 0 0 0 0
0 0 0 0 0 0 0 0 0 0 0 0 0 0 0 0 0 0 0 0 0 0 0 0 0 0 0 0 0 0 0 0 0 0 0 0 0 0
0 0 0 0 0 0 0 0 0 0 0 0 0 0 0 0 0 0 0 0 0 0 0 0 0 0 0 0 0 0 0 0 0 0 0 0 0 0
0 0 0 0 0 0 0 0 0 0 0 0 0 0 0 0 0 0 0 0 0 0 0 0 0 0 0 0 0 0 0 0 0 0 0 0 0 0
0 0 0 0 0 0 0 0 0 0 0 0 0 0 0 0 0 0 0 0 0 0 0 0 0 0 0 0 0 0 0 0 0 0 0 0 0 0
0 0 0 0 0 0 0 0 0 0 0 0 0 0 0 0 0 0 0 0 0 0 0 0 0 0 0 0 0 0 0 0 0 0 0 0 0 0
0 0 0 0 0 0 0 0 0 0 0 0 0 0 0 0 0 0 0 0 0 0 0 0 0 0 0 0 0 0 0 0 0 0 0 0 0 0
0 0 0 0 0 0 0 0 0 0 0 0 0 0 0 0 0 0 0 0 0 0 0 0 0 0 0 0 0 0 0 0 0 0 0 0 0 0
0 0 0 0 0 0 0 0 0 0 0 0 0 0 0 0 0 0 0 0 0 0 0 0 0 0 0 0 0 0 0 0 0 0 0 0 0 0
0 0 0 0 0 0 0 0 0 0 0 0 0 0 0 0 0 0 0 0 0 0 0 0 0 0 0 0 0 0 0 0 0 0 0 0 0 0
0 0 0 0 0 0 0 0 0 0 0 0 0 0 0 0 0 0 0 0 0 0 0 0 0 0 0 0 0 0 0 0 0 0 0 0 0 0
0 0 0 0 0 0 0 0 0 0 0 0 0 0 0 0 0 0 0 0 0 0 0 0 0 0 0 0 0 0 0 0 0 0 0 0 0 0
0 0 0 0 0 0 0 0 0 0 0 0 0 0 0 0 0 0 0 0 0 0 0 0 0 0 0 0 0 0 0 0 0 0 0 0 0 0
0 0 0 0 0 0 0 0 0 0 0 0 0 0 0 0 0 0 0 0 0 0 0 0 0 0 0 0 0 0 0 0 0 0 0 0 0 0
0 0 0 0 0 0 0 0 0 0 0 0 0 0 0 0 0 0 0 0 0 0 0 0 0 0 0 0 0 0 0 0 0 0 0 0 0 0
0 0 0 0 0 0 0 0 0 0 0 0 0 0 0 0 0 0 0 0 0 0 0 0 0 0 0 0 0 0 0 0 0 0 0 0 0 0
0 0 0 0 0 0 0 0 0 0 0 0 0 0 0 0 0 0 0 0 0 0 0 0 0 0 0 0 0 0 0 0 0 0 0 0 0 0
0 0 0 0 0 0 0 0 0 0 0 0 0 0 0 0 0 0 0 0 0 0 0 0 0 0 0 0 0 0 0 0 0 0 0 0 0 0
0 0 0 0 0 0 0 0 0 0 0 0 0 0 0 0 0 0 0 0 0 0 0 0 0 0 0 0 0 0 0 0 0 0 0 0 0 0
0 0 0 0 0 0 0 0 0 0 0 0 0 0 0 0 0 0 0 0 0 0 0 0 0 0 0 0 0 0 0 0 0 0 0 0 0 0
Wind_Speed
5 5 4 4 3 3 2 2 2 1 3 4 3 5 4 5 6 6 8 12 12 12 12 12 12 13 13 13 13 13 13 13 12 12 12 11 10 9
4 5 4 4 3 3 2 2 3 2 3 3 3 4 5 4 6 6 6 7 12 11 11 11 11 11 11 12 12 12 12 12 12 12 12 12 12 11
5 6 5 5 3 3 3 3 3 2 3 3 3 3 4 5 4 4 4 4 7 11 10 10 11 10 10 11 11 11 11 12 12 12 12 12 12 11
5 5 5 4 4 4 3 4 3 3 2 3 3 3 4 4 4 4 4 4 4 8 8 9 9 9 9 9 10 10 10 10 11 11 12 12 12 12
5 5 5 4 4 3 3 3 3 3 2 2 3 2 2 3 3 3 4 3 3 4 4 5 7 7 7 8 8 8 9 9 10 10 11 12 12 12
4 4 4 4 4 3 3 3 2 2 2 2 2 2 2 3 2 2 2 3 3 3 3 2 2 2 3 5 6 7 7 8 8 9 10 11 11 11
4 4 5 6 8 5 3 3 2 1 1 1 1 1 2 2 3 3 3 3 2 3 3 3 2 2 1 2 4 6 6 7 8 9 9 9 10 10
3 3 4 4 5 5 6 7 6 3 2 2 1 2 3 3 3 3 3 4 2 3 4 3 3 3 3 3 5 5 6 7 8 9 9 10 10 11
2 3 2 3 2 3 4 3 3 4 4 4 3 3 3 3 4 4 4 5 4 4 5 4 3 3 3 2 2 3 5 7 8 9 10 10 11 11
2 2 2 3 2 0 1 1 2 2 2 2 3 3 4 4 4 5 5 4 3 2 3 4 4 4 4 3 1 2 5 6 8 9 10 10 11 12
2 1 1 2 3 2 1 1 1 1 2 2 4 4 4 5 5 4 4 4 4 3 2 4 5 5 5 4 2 3 5 6 7 9 10 9 10 12
3 3 2 0 2 1 2 1 1 1 1 2 2 3 2 1 3 4 4 5 5 4 3 4 5 6 5 4 4 5 5 6 8 8 8 8 8 9
3 3 3 4 2 2 3 2 2 4 2 2 2 2 2 2 2 3 3 4 5 5 4 5 6 6 6 7 6 6 6 7 7 6 6 7 7 8
3 2 2 5 4 3 3 1 2 4 3 2 3 3 3 3 3 3 4 4 5 6 6 6 5 6 7 8 8 7 7 7 7 7 7 7 7 8
1 2 2 4 5 4 4 4 4 3 3 3 3 3 3 4 4 3 4 5 6 6 6 7 6 6 7 8 9 9 9 8 6 7 8 8 8 8
4 4 5 3 3 2 3 5 4 3 4 4 4 4 4 4 4 4 4 4 5 5 5 6 7 7 7 8 9 9 9 8 8 8 8 9 9 8
5 4 4 4 4 4 3 3 3 4 4 4 4 4 4 4 4 4 4 5 6 6 6 5 6 6 8 9 9 9 9 9 9 9 9 10 9 9
5 5 4 4 4 4 4 4 4 4 4 4 4 5 5 5 5 5 5 5 6 7 7 6 6 7 7 7 7 9 9 9 9 10 10 11 11 10
6 5 5 4 4 4 4 4 4 4 4 4 5 5 5 5 5 6 5 6 7 7 7 7 7 7 10 11 7 5 9 10 10 10 10 11 12 12
6 5 5 5 5 5 4 5 4 4 4 5 5 5 5 5 6 6 6 7 7 8 8 7 7 7 9 11 12 10 8 10 10 11 11 11 11 12
6 6 5 5 5 5 4 4 5 5 5 5 5 6 5 6 6 6 7 7 8 8 9 8 7 8 9 9 11 11 9 8 10 11 13 12 13 12
5 5 5 5 5 4 4 4 5 5 5 5 5 5 5 6 7 8 7 7 7 8 9 8 8 7 8 9 12 13 13 12 10 12 14 14 12 13
5 5 4 4 4 4 4 5 6 5 5 5 5 5 6 6 6 7 7 8 8 8 9 9 8 7 8 10 11 12 15 15 12 11 11 11 14 18
Wind_Direction
74 78 74 73 67 53 40 3 348 108 91 64 52 43 40 47 12 34 49 46 42 42 44 44 44 44 43 43 43 41 38 37 35 32 30 26 24 26
64 69 67 76 65 58 43 28 5 16 77 71 57 50 33 43 34 39 56 66 52 42 43 45 45 46 44 42 40 38 36 34 32 29 28 24 20 16
90 84 77 66 72 64 54 52 40 43 91 89 73 61 49 39 34 32 37 40 61 49 44 45 45 44 44 43 40 37 35 33 29 26 23 21 17 13
84 85 86 81 72 60 54 58 56 48 74 91 85 58 46 37 28 21 28 33 47 62 47 45 43 40 40 40 37 35 32 29 26 23 19 16 12 9
82 78 80 83 81 76 63 65 63 61 58 88 75 52 38 34 26 19 36 24 27 73 62 57 47 39 39 38 34 32 29 25 22 18 15 12 9 6
90 77 69 70 66 71 69 67 62 69 58 60 70 65 46 24 359 3 14 22 11 25 25 21 54 70 61 47 37 31 25 20 16 11 7 4 1 358
101 87 70 56 43 36 34 49 55 51 56 38 42 34 36 11 1 348 348 344 16 8 349 350 353 1 38 85 50 27 13 8 5 360 356 353 350 347
122 111 107 107 94 79 53 38 22 16 18 23 18 9 13 12 354 331 338 335 349 13 332 337 338 340 342 15 42 14 355 352 351 348 345 342 339 336
139 129 113 108 148 126 125 131 79 37 360 344 356 1 351 356 336 334 341 337 336 348 327 318 332 328 328 18 64 341 338 335 333 334 334 333 331 328
160 153 149 136 95 24 135 110 68 53 16 335 351 356 354 345 331 326 324 311 300 315 319 307 322 320 316 304 170 293 304 306 312 317 318 320 321 317
162 154 166 141 93 295 234 172 152 114 95 46 14 12 17 358 329 310 314 309 311 319 337 309 314 313 302 291 261 230 257 270 287 297 301 306 312 310
171 161 109 61 106 244 237 232 251 283 256 187 211 223 253 242 277 300 313 310 312 314 351 314 309 315 303 295 310 304 289 273 270 272 279 288 301 303
187 185 155 160 179 212 269 284 317 307 286 282 282 284 284 297 296 296 304 301 301 302 327 313 305 307 300 302 304 304 308 310 305 296 275 273 280 288
206 199 151 156 184 207 224 255 283 277 275 276 278 284 291 296 301 303 298 290 288 297 309 306 300 302 300 299 304 309 308 306 305 306 309 305 281 268
208 89 117 166 189 194 206 230 236 247 262 269 277 285 291 295 296 293 288 287 285 285 293 293 291 293 292 295 300 305 306 306 303 308 309 307 305 302
205 171 173 189 217 236 209 211 231 249 261 267 275 281 283 281 278 283 283 285 283 282 281 285 286 286 285 289 293 297 302 304 308 307 305 302 301 297
191 202 207 206 213 220 228 232 235 235 242 256 268 275 277 276 276 278 280 283 285 292 296 293 285 280 278 284 288 291 298 300 303 307 305 300 298 298
196 213 218 223 230 234 235 235 237 244 251 257 262 268 272 276 278 277 275 277 283 289 294 298 298 292 282 270 260 285 295 299 302 303 299 297 297 298
209 224 228 230 232 236 240 245 248 249 252 254 257 264 270 274 276 278 278 279 282 286 291 295 296 296 297 298 292 254 290 298 299 297 296 295 295 298
222 228 232 234 235 238 242 247 252 255 254 257 261 265 268 273 276 278 280 284 286 288 289 288 290 293 292 296 299 297 272 282 292 294 297 295 293 292
217 227 233 235 237 238 242 247 251 255 258 260 262 266 270 272 275 278 281 284 282 285 289 291 295 285 283 286 286 289 293 275 275 284 294 296 298 298
221 225 230 234 235 237 239 244 250 252 256 258 262 265 267 270 274 278 281 284 284 287 291 294 298 293 286 284 288 293 298 298 285 266 264 268 285 293
226 228 228 229 233 236 239 243 249 255 256 261 264 266 268 269 272 275 279 282 286 288 291 293 295 291 287 285 288 293 298 302 302 300 290 277 264 268